| time (UTC) | temp F | wind direction | speed knots | gust knots | rain 1hr in | rain 24hr in | rain mn in | humidity % | barometer mb |
| 20260506062016 | 60 | 0.0 | 0.0 | 0.00 | 0.00 | 0.00 | 79 | 1010.8 | |
| 20260506061016 | 60 | 0.0 | 0.0 | 0.00 | 0.00 | 0.00 | 79 | 1011.0 | |
| 20260506051016 | 62 | 0.0 | 0.0 | 0.00 | 0.00 | 0.00 | 76 | 1011.1 | |
| 20260506045035 | 63 | 0.0 | 0.0 | 0.00 | 0.00 | 0.00 | 76 | 1010.9 | |
| 20260506044035 | 63 | 0.0 | 0.0 | 0.00 | 0.00 | 0.00 | 76 | 1010.8 | |
| 20260506043017 | 63 | 0.0 | 0.0 | 0.00 | 0.00 | 0.00 | 74 | 1010.7 | |
| 20260506042017 | 64 | 0.0 | 0.0 | 0.00 | 0.00 | 0.00 | 74 | 1010.7 | |
| 20260506041037 | 64 | 0.0 | 0.0 | 0.00 | 0.00 | 0.00 | 73 | 1010.6 | |
| 20260506040017 | 64 | 0.0 | 0.0 | 0.00 | 0.00 | 0.00 | 73 | 1010.8 | |
| 20260506035017 | 65 | 0.0 | 0.0 | 0.00 | 0.00 | 0.00 | 73 | 1010.6 | |
| 20260506034017 | 65 | 0.0 | 0.0 | 0.00 | 0.00 | 0.00 | 73 | 1010.5 | |
| 20260506033017 | 66 | 0.0 | 0.0 | 0.00 | 0.00 | 0.00 | 73 | 1010.1 | |
| 20260506032037 | 66 | 0.0 | 0.0 | 0.00 | 0.00 | 0.00 | 73 | 1009.8 | |
| 20260506031037 | 66 | 0.0 | 0.0 | 0.00 | 0.00 | 0.00 | 73 | 1009.6 | |
| 20260506030017 | 66 | 0.0 | 0.0 | 0.00 | 0.00 | 0.00 | 73 | 1009.4 | |
| 20260506025017 | 67 | 0.0 | 0.0 | 0.00 | 0.00 | 0.00 | 73 | 1009.1 | |
| 20260506024017 | 67 | 0.0 | 0.0 | 0.00 | 0.00 | 0.00 | 72 | 1008.9 | |
| 20260506023017 | 67 | 0.0 | 0.0 | 0.00 | 0.00 | 0.00 | 71 | 1008.9 | |
| 20260506022037 | 67 | 0.0 | 0.0 | 0.00 | 0.00 | 0.00 | 70 | 1008.7 | |
| 20260506021037 | 68 | 0.0 | 0.0 | 0.00 | 0.00 | 0.00 | 70 | 1008.6 | |
| 20260506020017 | 68 | 0.0 | 0.0 | 0.00 | 0.00 | 0.00 | 71 | 1008.5 | |
| 20260506015037 | 68 | 0.0 | 0.0 | 0.00 | 0.00 | 0.00 | 70 | 1008.4 | |
| 20260506014036 | 69 | 0.0 | 0.0 | 0.00 | 0.00 | 0.00 | 70 | 1007.9 | |
| 20260506013016 | 69 | 0.0 | 0.0 | 0.00 | 0.00 | 0.00 | 69 | 1007.5 | |
| 20260506012016 | 70 | 0.0 | 0.0 | 0.00 | 0.00 | 0.00 | 69 | 1007.4 | |
| 20260506011037 | 71 | 0.0 | 0.0 | 0.00 | 0.00 | 0.00 | 68 | 1007.1 | |
| 20260506010017 | 71 | 0.0 | 0.0 | 0.00 | 0.00 | 0.00 | 68 | 1006.9 | |
| 20260506005017 | 72 | 0.0 | 0.0 | 0.00 | 0.00 | 0.00 | 67 | 1006.9 | |
| 20260506004016 | 72 | 0.0 | 0.0 | 0.00 | 0.00 | 0.00 | 68 | 1006.7 | |
| 20260506003016 | 73 | 0.0 | 0.0 | 0.00 | 0.00 | 0.00 | 67 | 1006.4 | |
| 20260506002016 | 73 | 0.0 | 0.0 | 0.00 | 0.00 | 0.00 | 66 | 1006.1 | |
| 20260506001017 | 74 | 0.0 | 0.0 | 0.00 | 0.00 | 0.00 | 64 | 1006.3 | |
| 20260506000036 | 74 | 0.0 | 0.0 | 0.00 | 0.00 | 0.00 | 64 | 1006.1 | |
| 20260505235016 | 75 | 0.0 | 0.0 | 0.00 | 0.00 | 0.00 | 64 | 1006.2 | |
| 20260505234016 | 75 | 0.0 | 0.0 | 0.00 | 0.00 | 0.00 | 62 | 1006.2 | |
| 20260505233037 | 76 | 0.0 | 0.0 | 0.00 | 0.00 | 0.00 | 62 | 1006.1 | |
| 20260505232057 | 77 | 45 | 2.6 | 12.2 | 0.00 | 0.00 | 0.00 | 62 | 1006.1 |
| 20260505231016 | 78 | 0 | 0.9 | 7.0 | 0.00 | 0.00 | 0.00 | 60 | 1006.2 |
| 20260505230017 | 79 | 45 | 2.6 | 11.3 | 0.00 | 0.00 | 0.00 | 59 | 1005.9 |
| 20260505225016 | 80 | 23 | 5.2 | 13.9 | 0.00 | 0.00 | 0.00 | 60 | 1006.0 |
| 20260505224016 | 80 | 23 | 4.3 | 10.4 | 0.00 | 0.00 | 0.00 | 60 | 1005.8 |
| 20260505223016 | 82 | 23 | 4.3 | 11.3 | 0.00 | 0.00 | 0.00 | 60 | 1005.5 |
| 20260505222017 | 82 | 23 | 3.5 | 9.6 | 0.00 | 0.00 | 0.00 | 59 | 1005.4 |
| 20260505221056 | 83 | 23 | 3.5 | 10.4 | 0.00 | 0.00 | 0.00 | 57 | 1005.3 |
| 20260505220016 | 83 | 23 | 3.5 | 11.3 | 0.00 | 0.00 | 0.00 | 55 | 1005.3 |
| 20260505215016 | 84 | 23 | 2.6 | 7.8 | 0.00 | 0.00 | 0.00 | 54 | 1005.1 |
| 20260505214016 | 85 | 23 | 2.6 | 7.8 | 0.00 | 0.00 | 0.00 | 50 | 1005.3 |
| 20260505213016 | 86 | 23 | 4.3 | 9.6 | 0.00 | 0.00 | 0.00 | 47 | 1005.5 |
| 20260505212036 | 87 | 45 | 3.5 | 8.7 | 0.00 | 0.00 | 0.00 | 45 | 1005.4 |
| 20260505211056 | 89 | 270 | 1.7 | 7.8 | 0.00 | 0.00 | 0.00 | 45 | 1005.5 |
| 20260505210016 | 90 | 270 | 0.9 | 2.6 | 0.00 | 0.00 | 0.00 | 49 | 1005.6 |
| 20260505205016 | 90 | 248 | 1.7 | 4.3 | 0.00 | 0.00 | 0.00 | 51 | 1005.7 |
| 20260505204016 | 89 | 248 | 1.7 | 5.2 | 0.00 | 0.00 | 0.00 | 51 | 1005.8 |
| 20260505203016 | 88 | 270 | 1.7 | 5.2 | 0.00 | 0.00 | 0.00 | 50 | 1005.8 |
| 20260505202016 | 88 | 338 | 1.7 | 4.3 | 0.00 | 0.00 | 0.00 | 52 | 1006.0 |
| 20260505201016 | 88 | 248 | 2.6 | 6.1 | 0.00 | 0.00 | 0.00 | 52 | 1005.9 |
| 20260505200016 | 88 | 270 | 1.7 | 7.8 | 0.00 | 0.00 | 0.00 | 53 | 1006.1 |
| 20260505195016 | 88 | 270 | 1.7 | 7.0 | 0.00 | 0.00 | 0.00 | 55 | 1006.3 |
| 20260505194016 | 87 | 270 | 2.6 | 8.7 | 0.00 | 0.00 | 0.00 | 52 | 1006.2 |
| 20260505193016 | 87 | 270 | 1.7 | 5.2 | 0.00 | 0.00 | 0.00 | 56 | 1006.2 |
| 20260505192036 | 87 | 270 | 3.5 | 7.8 | 0.00 | 0.00 | 0.00 | 53 | 1006.2 |
| 20260505191016 | 87 | 203 | 1.7 | 6.1 | 0.00 | 0.00 | 0.00 | 57 | 1006.0 |
| 20260505190016 | 86 | 248 | 2.6 | 6.1 | 0.00 | 0.00 | 0.00 | 57 | 1006.1 |
| 20260505185036 | 85 | 270 | 2.6 | 6.1 | 0.00 | 0.00 | 0.00 | 59 | 1006.1 |
| 20260505184016 | 85 | 225 | 2.6 | 6.1 | 0.00 | 0.00 | 0.00 | 62 | 1006.1 |
| 20260505183016 | 84 | 225 | 1.7 | 4.3 | 0.00 | 0.00 | 0.00 | 64 | 1006.2 |
| 20260505182016 | 83 | 225 | 3.5 | 8.7 | 0.00 | 0.00 | 0.00 | 64 | 1006.3 |
| 20260505181016 | 83 | 203 | 2.6 | 7.0 | 0.00 | 0.00 | 0.00 | 66 | 1006.4 |
| 20260505180036 | 83 | 203 | 2.6 | 12.2 | 0.00 | 0.00 | 0.00 | 64 | 1006.4 |
| 20260505175016 | 83 | 248 | 2.6 | 6.1 | 0.00 | 0.00 | 0.00 | 66 | 1006.4 |
| 20260505174056 | 83 | 225 | 2.6 | 7.0 | 0.00 | 0.00 | 0.00 | 66 | 1006.4 |
| 20260505173016 | 82 | 180 | 1.7 | 6.1 | 0.00 | 0.00 | 0.00 | 68 | 1006.4 |
| 20260505172016 | 82 | 225 | 2.6 | 8.7 | 0.00 | 0.00 | 0.00 | 66 | 1006.3 |
| 20260505171016 | 81 | 225 | 3.5 | 7.0 | 0.00 | 0.00 | 0.00 | 67 | 1006.4 |
| 20260505170015 | 81 | 248 | 2.6 | 6.1 | 0.00 | 0.00 | 0.00 | 68 | 1006.5 |
| 20260505165016 | 81 | 270 | 2.6 | 7.0 | 0.00 | 0.00 | 0.00 | 67 | 1006.5 |
| 20260505164016 | 81 | 180 | 2.6 | 10.4 | 0.00 | 0.00 | 0.00 | 68 | 1006.4 |
| 20260505163015 | 80 | 225 | 2.6 | 9.6 | 0.00 | 0.00 | 0.00 | 71 | 1006.3 |
| 20260505162016 | 78 | 225 | 3.5 | 7.0 | 0.00 | 0.00 | 0.00 | 72 | 1006.2 |
| 20260505161015 | 78 | 0.0 | 0.0 | 0.00 | 0.00 | 0.00 | 74 | 1006.1 | |
| 20260505153015 | 75 | 0.0 | 0.0 | 0.00 | 0.00 | 0.00 | 78 | 1005.9 | |
| 20260505152015 | 75 | 0.0 | 0.0 | 0.00 | 0.00 | 0.00 | 79 | 1005.9 | |
| 20260505151015 | 74 | 0.0 | 0.0 | 0.00 | 0.00 | 0.00 | 79 | 1005.8 | |
| 20260505125015 | 70 | 0.0 | 0.0 | 0.00 | 0.00 | 0.00 | 84 | 1005.5 | |
| 20260505124015 | 70 | 0.0 | 0.0 | 0.00 | 0.00 | 0.00 | 84 | 1005.3 | |
| 20260505123015 | 70 | 0.0 | 0.0 | 0.00 | 0.00 | 0.00 | 84 | 1005.2 | |
| 20260505122015 | 70 | 0.0 | 0.0 | 0.00 | 0.00 | 0.00 | 84 | 1005.1 | |
| 20260505121015 | 70 | 0.0 | 0.0 | 0.00 | 0.00 | 0.00 | 84 | 1005.0 | |
| 20260505120015 | 70 | 0.0 | 0.0 | 0.00 | 0.00 | 0.00 | 84 | 1005.1 | |
| 20260505115015 | 70 | 0.0 | 0.0 | 0.00 | 0.00 | 0.00 | 84 | 1004.9 | |
| 20260505114015 | 70 | 0.0 | 0.0 | 0.00 | 0.00 | 0.00 | 84 | 1004.9 | |
| 20260505113015 | 69 | 0.0 | 0.0 | 0.00 | 0.00 | 0.00 | 84 | 1004.8 | |
| 20260505112015 | 69 | 0.0 | 0.0 | 0.00 | 0.00 | 0.00 | 84 | 1004.8 | |
| 20260505111015 | 69 | 0.0 | 0.0 | 0.00 | 0.00 | 0.00 | 84 | 1004.8 | |
| 20260505102015 | 69 | 0.0 | 0.0 | 0.00 | 0.00 | 0.00 | 85 | 1004.6 | |
| 20260505101015 | 69 | 0.0 | 0.0 | 0.00 | 0.00 | 0.00 | 84 | 1004.7 | |
| 20260505100015 | 69 | 0.0 | 0.0 | 0.00 | 0.00 | 0.00 | 84 | 1004.8 | |
| 20260505095015 | 69 | 0.0 | 0.0 | 0.00 | 0.00 | 0.00 | 84 | 1004.8 | |
| 20260505094015 | 69 | 0.0 | 0.0 | 0.00 | 0.00 | 0.00 | 83 | 1004.9 | |
| 20260505093015 | 70 | 0.0 | 0.0 | 0.00 | 0.00 | 0.00 | 83 | 1004.9 | |
| 20260505092015 | 70 | 0.0 | 0.0 | 0.00 | 0.00 | 0.00 | 82 | 1005.0 | |
| 20260505091015 | 70 | 0.0 | 0.0 | 0.00 | 0.00 | 0.00 | 82 | 1005.1 | |
| 20260505090015 | 70 | 0.0 | 0.0 | 0.00 | 0.00 | 0.00 | 81 | 1005.3 | |
| 20260505085015 | 71 | 0.0 | 0.0 | 0.00 | 0.00 | 0.00 | 81 | 1005.4 | |
| 20260505084015 | 71 | 0.0 | 0.0 | 0.00 | 0.00 | 0.00 | 80 | 1005.3 | |
| 20260505083017 | 71 | 0.0 | 0.0 | 0.00 | 0.00 | 0.00 | 79 | 1005.4 | |
| 20260505082017 | 71 | 0.0 | 0.0 | 0.00 | 0.00 | 0.00 | 79 | 1005.5 | |
| 20260505081037 | 71 | 0.0 | 0.0 | 0.00 | 0.00 | 0.00 | 78 | 1005.5 | |
| 20260505080017 | 71 | 0.0 | 0.0 | 0.00 | 0.00 | 0.00 | 78 | 1005.4 | |
| 20260505075037 | 72 | 0.0 | 0.0 | 0.00 | 0.00 | 0.00 | 77 | 1005.5 | |
| 20260505074016 | 72 | 0.0 | 0.0 | 0.00 | 0.00 | 0.00 | 76 | 1005.6 | |
| 20260505073016 | 72 | 0.0 | 0.0 | 0.00 | 0.00 | 0.00 | 76 | 1006.0 | |
| 20260505072016 | 72 | 0.0 | 0.0 | 0.00 | 0.00 | 0.00 | 76 | 1006.1 | |
| 20260505071016 | 72 | 0.0 | 0.0 | 0.00 | 0.00 | 0.00 | 75 | 1006.3 |